DW4604 Weather Reports


Display with metric or nautical units.
time (UTC)temp
F
wind
direction
speed
MPH
gust
MPH
rain 1hr
in
rain 24hr
in
rain mn
in
humidity
%
barometer
mb
20180225173001 11 0 0.0 0.0 0.00 0.00 0.00 77 1025.4
20180225172502 11 0 0.0 0.0 0.00 0.00 0.00 76 1025.4
20180225172003 11 0 0.0 0.0 0.00 0.00 0.00 76 1025.4
20180225171502 12 89 0.0 1.0 0.00 0.00 0.00 76 1025.4
20180225171002 12 89 0.0 1.0 0.00 0.00 0.00 76 1025.4
20180225170501 12 0 0.0 0.0 0.00 0.00 0.00 74 1025.4
20180225170001 13 0 0.0 0.0 0.00 0.00 0.00 74 1025.6
20180225165502 13 27 0.0 1.0 0.00 0.00 0.00 74 1025.5
20180225165002 13 32 0.0 1.0 0.00 0.00 0.00 73 1025.4
20180225164502 13 54 0.0 2.0 0.00 0.00 0.00 73 1025.4
20180225164002 13 59 0.0 2.0 0.00 0.00 0.00 72 1025.3
20180225163502 13 41 1.0 4.0 0.00 0.00 0.00 72 1025.3
20180225163001 13 29 1.0 6.0 0.00 0.00 0.00 72 1025.2
20180225162501 13 28 1.0 6.0 0.00 0.00 0.00 72 1025.2
20180225162002 14 36 0.0 4.0 0.00 0.00 0.00 71 1025.2
20180225161502 14 47 1.0 4.0 0.00 0.00 0.00 71 1025.2
20180225161002 14 50 1.0 4.0 0.00 0.00 0.00 71 1025.2
20180225160514 14 53 1.0 5.0 0.00 0.00 0.00 70 1025.2
20180225160002 14 53 1.0 5.0 0.00 0.00 0.00 70 1025.1
20180225155502 14 53 1.0 7.0 0.00 0.00 0.00 70 1025.1
20180225155003 14 49 2.0 7.0 0.00 0.00 0.00 69 1025.1
20180225154502 15 44 1.0 6.0 0.00 0.00 0.00 70 1025.1
20180225154002 15 32 1.0 4.0 0.00 0.00 0.00 70 1025.1
20180225153502 15 32 1.0 6.0 0.00 0.00 0.00 71 1025.1
20180225153002 14 31 2.0 6.0 0.00 0.00 0.00 71 1025.0
20180225152502 14 33 1.0 6.0 0.00 0.00 0.00 71 1025.1
20180225152002 14 34 1.0 4.0 0.00 0.00 0.00 72 1025.1
20180225151502 14 23 1.0 3.0 0.00 0.00 0.00 72 1025.1
20180225151002 14 25 1.0 5.0 0.00 0.00 0.00 72 1025.1
20180225150502 14 43 2.0 8.0 0.00 0.00 0.00 71 1025.2
20180225150002 14 54 3.0 8.0 0.00 0.00 0.00 70 1025.1
20180225145503 14 50 3.0 9.0 0.00 0.00 0.00 70 1025.1
20180225145002 15 53 3.0 9.0 0.00 0.00 0.00 70 1025.1
20180225144502 15 60 3.0 9.0 0.00 0.00 0.00 69 1025.1
20180225144002 15 52 4.0 9.0 0.00 0.00 0.00 69 1025.2
20180225143502 15 50 4.0 9.0 0.00 0.00 0.00 68 1025.2
20180225143002 15 55 2.0 7.0 0.00 0.00 0.00 69 1025.1
20180225142502 15 63 2.0 7.0 0.00 0.00 0.00 69 1025.1
20180225142002 15 46 2.0 6.0 0.00 0.00 0.00 69 1025.1
20180225141502 15 21 2.0 7.0 0.00 0.00 0.00 69 1025.2
20180225141003 15 29 3.0 8.0 0.00 0.00 0.00 68 1025.3
20180225140503 15 49 3.0 8.0 0.00 0.00 0.00 69 1025.2
20180225140002 15 54 4.0 12.0 0.00 0.00 0.00 68 1025.2
20180225135502 16 42 3.0 12.0 0.00 0.00 0.00 67 1025.2
20180225135002 16 30 2.0 9.0 0.00 0.00 0.00 69 1025.3
20180225134502 16 32 2.0 8.0 0.00 0.00 0.00 68 1025.3
20180225134003 16 25 1.0 4.0 0.00 0.00 0.00 68 1025.3
20180225133503 15 18 0.0 4.0 0.00 0.00 0.00 69 1025.3
20180225133003 15 30 1.0 6.0 0.00 0.00 0.00 69 1025.3
20180225132503 15 49 2.0 7.0 0.00 0.00 0.00 69 1025.4
20180225132003 15 54 3.0 7.0 0.00 0.00 0.00 69 1025.5
20180225131503 15 35 3.0 6.0 0.00 0.00 0.00 70 1025.5
20180225131003 15 22 3.0 7.0 0.00 0.00 0.00 70 1025.5
20180225130502 15 17 3.0 7.0 0.00 0.00 0.00 69 1025.5
20180225130003 15 26 1.0 6.0 0.00 0.00 0.00 70 1025.6
20180225125503 15 23 2.0 9.0 0.00 0.00 0.00 69 1025.6
20180225125003 15 33 3.0 9.0 0.00 0.00 0.00 70 1025.6
20180225124503 15 59 3.0 8.0 0.00 0.00 0.00 69 1025.6
20180225124003 15 61 5.0 10.0 0.00 0.00 0.00 68 1025.6
20180225123503 15 56 3.0 10.0 0.00 0.00 0.00 68 1025.7
20180225123002 16 15 1.0 9.0 0.00 0.00 0.00 69 1025.7
20180225122502 15 334 1.0 5.0 0.00 0.00 0.00 69 1025.7
20180225122002 15 338 2.0 6.0 0.00 0.00 0.00 70 1025.7
20180225121502 15 13 3.0 10.0 0.00 0.00 0.00 69 1025.8
20180225121004 15 31 3.0 10.0 0.00 0.00 0.00 70 1025.8
20180225120503 15 31 4.0 11.0 0.00 0.00 0.00 71 1025.9
20180225120003 15 358 4.0 11.0 0.00 0.00 0.00 71 1025.8
20180225115503 15 337 2.0 10.0 0.00 0.00 0.00 70 1025.8
20180225115003 15 15 2.0 6.0 0.00 0.00 0.00 70 1025.9
20180225114502 15 13 3.0 9.0 0.00 0.00 0.00 70 1025.9
20180225114003 15 25 2.0 9.0 0.00 0.00 0.00 72 1025.9
20180225113503 14 53 2.0 8.0 0.00 0.00 0.00 71 1025.9
20180225113003 14 48 3.0 9.0 0.00 0.00 0.00 71 1026.0
20180225112502 14 42 2.0 9.0 0.00 0.00 0.00 70 1026.1
20180225112003 14 45 2.0 10.0 0.00 0.00 0.00 72 1026.0
20180225111503 14 41 3.0 10.0 0.00 0.00 0.00 72 1026.1
20180225111003 14 40 3.0 10.0 0.00 0.00 0.00 73 1026.2
20180225110504 14 40 2.0 7.0 0.00 0.00 0.00 74 1026.2
20180225110003 14 35 2.0 6.0 0.00 0.00 0.00 74 1026.4
20180225105503 14 30 3.0 6.0 0.00 0.00 0.00 72 1026.4
20180225105004 14 358 3.0 9.0 0.00 0.00 0.00 73 1026.5
20180225104503 13 2 3.0 9.0 0.00 0.00 0.00 73 1026.5
20180225104003 13 21 3.0 9.0 0.00 0.00 0.00 72 1026.6
20180225103503 13 21 2.0 8.0 0.00 0.00 0.00 72 1026.6
20180225103003 13 17 2.0 6.0 0.00 0.00 0.00 72 1026.7
20180225102503 13 35 1.0 6.0 0.00 0.00 0.00 73 1026.7
20180225102004 13 60 2.0 6.0 0.00 0.00 0.00 73 1026.7
20180225101503 13 69 2.0 6.0 0.00 0.00 0.00 73 1026.8
20180225101003 13 65 3.0 12.0 0.00 0.00 0.00 73 1026.8
20180225100503 13 62 4.0 12.0 0.00 0.00 0.00 73 1026.9
20180225100003 13 62 4.0 12.0 0.00 0.00 0.00 73 1026.9
20180225095503 12 60 4.0 10.0 0.00 0.00 0.00 74 1026.9
20180225095003 12 41 4.0 10.0 0.00 0.00 0.00 75 1026.9
20180225094503 12 26 3.0 9.0 0.00 0.00 0.00 77 1026.9
20180225094004 12 49 3.0 8.0 0.00 0.00 0.00 76 1026.8
20180225093505 12 54 3.0 8.0 0.00 0.00 0.00 75 1026.9
20180225093004 12 36 3.0 9.0 0.00 0.00 0.00 75 1027.0
20180225092503 12 39 3.0 11.0 0.00 0.00 0.00 74 1026.9
20180225091003 12 37 3.0 11.0 0.00 0.00 0.00 76 1026.9
20180225090503 12 48 4.0 12.0 0.00 0.00 0.00 76 1026.9
20180225090005 11 55 5.0 12.0 0.00 0.00 0.00 76 1026.9
20180225085503 11 54 6.0 12.0 0.00 0.00 0.00 76 1026.8
20180225085004 12 54 4.0 12.0 0.00 0.00 0.00 76 1026.8
20180225084504 12 57 3.0 10.0 0.00 0.00 0.00 77 1026.8
20180225084004 12 58 3.0 9.0 0.00 0.00 0.00 78 1026.8
20180225083503 12 61 2.0 9.0 0.00 0.00 0.00 80 1026.7
20180225083003 11 49 1.0 5.0 0.00 0.00 0.00 81 1026.7
20180225082503 11 33 3.0 10.0 0.00 0.00 0.00 82 1026.7
20180225082005 11 35 4.0 10.0 0.00 0.00 0.00 81 1026.7
20180225081504 11 43 3.0 8.0 0.00 0.00 0.00 82 1026.7
20180225081004 11 47 2.0 8.0 0.00 0.00 0.00 83 1026.7
20180225080504 11 40 2.0 8.0 0.00 0.00 0.00 83 1026.6
20180225080004 11 29 2.0 8.0 0.00 0.00 0.00 84 1026.7
20180225075503 11 17 2.0 8.0 0.00 0.00 0.00 84 1026.7
20180225075003 10 31 2.0 6.0 0.00 0.00 0.00 85 1026.7
20180225074503 10 47 1.0 6.0 0.00 0.00 0.00 85 1026.7
20180225074003 10 34 1.0 5.0 0.00 0.00 0.00 86 1026.8
20180225073504 10 27 1.0 5.0 0.00 0.00 0.00 86 1026.8
20180225073004 9 28 1.0 5.0 0.00 0.00 0.00 86 1026.8
20180225072504 9 25 1.0 5.0 0.00 0.00 0.00 86 1026.8
20180225072004 9 46 1.0 4.0 0.00 0.00 0.00 87 1026.8
20180225071504 9 56 1.0 4.0 0.00 0.00 0.00 86 1026.9
20180225071004 9 30 1.0 6.0 0.00 0.00 0.00 87 1026.9
20180225070504 8 23 1.0 6.0 0.00 0.00 0.00 87 1026.9
20180225070004 9 21 1.0 4.0 0.00 0.00 0.00 87 1026.9
20180225065503 9 28 0.0 4.0 0.00 0.00 0.00 87 1026.9
20180225065005 8 36 1.0 4.0 0.00 0.00 0.00 87 1026.9
20180225064503 8 41 1.0 5.0 0.00 0.00 0.00 87 1026.9
20180225064004 8 28 1.0 6.0 0.00 0.00 0.00 88 1026.9
20180225063504 8 9 0.0 6.0 0.00 0.00 0.00 88 1026.9
20180225063005 8 33 0.0 3.0 0.00 0.00 0.00 88 1026.9
20180225062504 8 19 0.0 2.0 0.00 0.00 0.00 88 1026.9
20180225062004 8 358 1.0 5.0 0.00 0.00 0.00 88 1026.8
20180225061504 8 357 1.0 5.0 0.00 0.00 0.00 88 1026.8
20180225061004 8 351 0.0 2.0 0.00 0.00 0.00 88 1026.7
20180225060504 7 348 1.0 2.0 0.00 0.00 0.00 88 1026.7
20180225060004 7 341 1.0 3.0 0.00 0.00 0.00 88 1026.7
20180225055504 7 347 0.0 3.0 0.00 0.00 0.00 89 1026.6
20180225055005 7 343 0.0 2.0 0.00 0.00 0.00 89 1026.6
20180225054505 7 347 1.0 3.0 0.00 0.00 0.00 89 1026.6
20180225054004 7 346 0.0 5.0 0.00 0.00 0.00 89 1026.6
20180225053504 7 351 1.0 5.0 0.00 0.00 0.00 89 1026.5
20180225053004 6 358 1.0 4.0 0.00 0.00 0.00 89 1026.4
20180225052505 6 347 0.0 3.0 0.00 0.00 0.00 88 1026.4
20180225052004 6 344 0.0 2.0 0.00 0.00 0.00 88 1026.3
20180225051504 6 330 0.0 1.0 0.00 0.00 0.00 88 1026.3
20180225051004 6 348 0.0 2.0 0.00 0.00 0.00 88 1026.2
20180225050504 6 4 0.0 2.0 0.00 0.00 0.00 88 1026.3
20180225050004 6 16 0.0 3.0 0.00 0.00 0.00 88 1026.2
20180225045504 6 15 0.0 3.0 0.00 0.00 0.00 88 1026.2
20180225045004 6 8 1.0 5.0 0.00 0.00 0.00 87 1026.2
20180225044505 6 8 1.0 5.0 0.00 0.00 0.00 88 1026.3
20180225044005 6 8 1.0 4.0 0.00 0.00 0.00 87 1026.2
20180225043505 6 357 1.0 6.0 0.00 0.00 0.00 87 1026.2
20180225043005 6 354 2.0 6.0 0.00 0.00 0.00 87 1026.2
20180225042504 6 5 1.0 7.0 0.00 0.00 0.00 87 1026.2
20180225042004 6 9 2.0 7.0 0.00 0.00 0.00 87 1026.2
20180225041504 6 9 3.0 7.0 0.00 0.00 0.00 87 1026.2
20180225041004 6 3 2.0 7.0 0.00 0.00 0.00 87 1026.1
20180225040504 6 7 2.0 7.0 0.00 0.00 0.00 87 1026.1
20180225040005 7 16 2.0 8.0 0.00 0.00 0.00 87 1026.1
20180225035504 7 14 2.0 8.0 0.00 0.00 0.00 87 1026.2
20180225035004 7 17 3.0 8.0 0.00 0.00 0.00 87 1026.1
20180225034505 7 18 3.0 8.0 0.00 0.00 0.00 87 1026.1
20180225034005 7 14 2.0 7.0 0.00 0.00 0.00 87 1026.2
20180225033505 7 18 3.0 7.0 0.00 0.00 0.00 87 1026.1
20180225033004 7 18 2.0 8.0 0.00 0.00 0.00 87 1026.1
20180225032504 7 13 2.0 8.0 0.00 0.00 0.00 87 1026.1
20180225032005 7 15 2.0 7.0 0.00 0.00 0.00 87 1026.2
20180225031505 7 17 1.0 7.0 0.00 0.00 0.00 87 1026.2
20180225031004 7 10 1.0 6.0 0.00 0.00 0.00 86 1026.2
20180225030504 7 11 1.0 7.0 0.00 0.00 0.00 86 1026.2
20180225030004 8 16 1.0 7.0 0.00 0.00 0.00 86 1026.2
20180225025504 8 17 1.0 6.0 0.00 0.00 0.00 86 1026.2
20180225025005 8 17 2.0 9.0 0.00 0.00 0.00 86 1026.2
20180225024505 8 20 1.0 9.0 0.00 0.00 0.00 86 1026.2
20180225024005 8 25 2.0 7.0 0.00 0.00 0.00 86 1026.2
20180225023505 8 23 2.0 7.0 0.00 0.00 0.00 86 1026.1
20180225023005 8 21 2.0 6.0 0.00 0.00 0.00 85 1026.1
20180225022504 8 25 1.0 6.0 0.00 0.00 0.00 85 1026.1
20180225022004 8 34 1.0 6.0 0.00 0.00 0.00 85 1026.1
20180225021504 8 28 2.0 9.0 0.00 0.00 0.00 85 1026.0
20180225021004 8 23 2.0 9.0 0.00 0.00 0.00 85 1026.0
20180225020504 8 19 1.0 6.0 0.00 0.00 0.00 85 1025.9
20180225020005 8 30 1.0 5.0 0.00 0.00 0.00 85 1025.9
20180225015505 9 28 1.0 6.0 0.00 0.00 0.00 85 1026.0
20180225015005 9 25 2.0 8.0 0.00 0.00 0.00 85 1025.9
20180225014505 9 23 2.0 8.0 0.00 0.00 0.00 85 1026.0
20180225014005 9 26 2.0 8.0 0.00 0.00 0.00 85 1026.0
20180225013505 9 29 1.0 7.0 0.00 0.00 0.00 85 1026.0
20180225013004 9 28 1.0 7.0 0.00 0.00 0.00 85 1026.0
20180225012505 9 25 2.0 9.0 0.00 0.00 0.00 84 1026.0
20180225012005 9 25 3.0 9.0 0.00 0.00 0.00 84 1026.0
20180225011505 9 31 2.0 7.0 0.00 0.00 0.00 84 1026.1
20180225011005 10 40 1.0 6.0 0.00 0.00 0.00 84 1026.0
20180225010505 10 50 2.0 5.0 0.00 0.00 0.00 83 1026.1
20180225010005 10 49 3.0 8.0 0.00 0.00 0.00 83 1026.1
20180225005505 10 50 3.0 8.0 0.00 0.00 0.00 83 1026.1
20180225005006 10 52 2.0 8.0 0.00 0.00 0.00 83 1026.1
20180225004505 10 50 3.0 8.0 0.00 0.00 0.00 83 1026.1
20180225004006 10 54 3.0 9.0 0.00 0.00 0.00 83 1026.2
20180225003505 10 56 2.0 10.0 0.00 0.00 0.00 83 1026.2
20180225003005 10 48 3.0 10.0 0.00 0.00 0.00 83 1026.2
20180225002507 11 45 2.0 10.0 0.00 0.00 0.00 82 1026.1
20180225002005 11 44 2.0 7.0 0.00 0.00 0.00 82 1026.1
20180225001505 11 44 3.0 10.0 0.00 0.00 0.00 82 1026.1
20180225001005 11 45 3.0 10.0 0.00 0.00 0.00 82 1026.1
20180225000505 11 46 4.0 10.0 0.00 0.00 0.00 82 1026.1
20180225000004 11 44 3.0 10.0 0.00 0.00 0.00 82 1026.0
20180224235930 11 43 3.0 10.0 0.00 0.00 0.00 82 1026.0
20180224235430 11 41 2.0 7.0 0.00 0.00 0.00 82 1026.0
20180224234930 11 52 2.0 6.0 0.00 0.00 0.00 82 1026.1
20180224234430 11 53 1.0 9.0 0.00 0.00 0.00 82 1026.1
20180224233930 12 52 1.0 9.0 0.00 0.00 0.00 82 1026.1
20180224233430 12 52 2.0 5.0 0.00 0.00 0.00 82 1026.0
20180224232931 12 47 3.0 9.0 0.00 0.00 0.00 82 1026.0
20180224232430 12 48 4.0 9.0 0.00 0.00 0.00 81 1026.0
20180224231930 12 48 3.0 9.0 0.00 0.00 0.00 82 1026.0
20180224231430 13 47 3.0 12.0 0.00 0.00 0.00 83 1026.0
20180224230930 13 57 4.0 12.0 0.00 0.00 0.00 83 1026.0
20180224230430 13 63 3.0 8.0 0.00 0.00 0.00 84 1026.0
20180224225931 13 61 3.0 8.0 0.00 0.00 0.00 84 1026.0
20180224225430 13 64 2.0 8.0 0.00 0.00 0.00 84 1026.0
20180224224930 14 62 2.0 8.0 0.00 0.00 0.00 84 1025.9
20180224224430 14 59 3.0 8.0 0.00 0.00 0.00 83 1026.0
20180224223930 14 60 3.0 7.0 0.00 0.00 0.00 82 1026.0
20180224223430 14 60 3.0 6.0 0.00 0.00 0.00 80 1026.0
20180224222930 14 57 2.0 8.0 0.00 0.00 0.00 78 1026.0
20180224222430 14 50 2.0 9.0 0.00 0.00 0.00 76 1026.0
20180224221930 14 36 3.0 9.0 0.00 0.00 0.00 76 1026.0
20180224221431 14 35 2.0 8.0 0.00 0.00 0.00 75 1025.8
20180224220930 14 42 2.0 8.0 0.00 0.00 0.00 75 1025.8
20180224220430 14 32 3.0 11.0 0.00 0.00 0.00 75 1025.8
20180224215931 14 37 3.0 11.0 0.00 0.00 0.00 75 1025.8
20180224215431 14 42 4.0 11.0 0.00 0.00 0.00 74 1025.7
20180224214931 14 40 4.0 11.0 0.00 0.00 0.00 74 1025.7
20180224214431 15 42 3.0 9.0 0.00 0.00 0.00 74 1025.6
20180224213931 15 50 4.0 12.0 0.00 0.00 0.00 74 1025.5
20180224213431 15 58 6.0 15.0 0.00 0.00 0.00 75 1025.5
20180224212931 15 60 5.0 15.0 0.00 0.00 0.00 75 1025.5
20180224212430 15 58 4.0 11.0 0.00 0.00 0.00 76 1025.4
20180224211930 15 60 5.0 11.0 0.00 0.00 0.00 76 1025.4
20180224211430 15 60 5.0 12.0 0.00 0.00 0.00 75 1025.3
20180224210930 15 59 6.0 15.0 0.00 0.00 0.00 75 1025.2
20180224210430 15 56 6.0 15.0 0.00 0.00 0.00 75 1025.2
20180224205931 15 54 6.0 12.0 0.00 0.00 0.00 76 1025.2
20180224205431 15 55 5.0 12.0 0.00 0.00 0.00 77 1025.3
20180224204931 15 53 3.0 11.0 0.00 0.00 0.00 78 1025.3
20180224204432 14 45 2.0 8.0 0.00 0.00 0.00 79 1025.2
20180224203931 14 32 2.0 8.0 0.00 0.00 0.00 79 1025.1
20180224203431 14 28 2.0 9.0 0.00 0.00 0.00 79 1025.1
20180224202931 14 31 1.0 9.0 0.00 0.00 0.00 78 1025.0
20180224202431 15 29 2.0 9.0 0.00 0.00 0.00 78 1024.9
20180224201931 15 19 2.0 8.0 0.00 0.00 0.00 78 1024.8
20180224201431 15 19 3.0 8.0 0.00 0.00 0.00 77 1024.8
20180224200931 15 25 2.0 8.0 0.00 0.00 0.00 77 1024.9
20180224200430 15 26 2.0 7.0 0.00 0.00 0.00 77 1024.9
20180224195931 15 26 2.0 6.0 0.00 0.00 0.00 76 1024.8
20180224195431 15 28 3.0 10.0 0.00 0.00 0.00 76 1024.8
20180224194931 16 30 3.0 11.0 0.00 0.00 0.00 76 1024.7
20180224194431 16 27 3.0 11.0 0.00 0.00 0.00 76 1024.7
20180224193931 16 23 2.0 8.0 0.00 0.00 0.00 75 1024.7
20180224193431 16 27 2.0 7.0 0.00 0.00 0.00 75 1024.7
20180224192931 16 37 3.0 7.0 0.00 0.00 0.00 75 1024.6
20180224192432 16 39 4.0 9.0 0.00 0.00 0.00 74 1024.5
20180224191932 16 33 3.0 9.0 0.00 0.00 0.00 74 1024.5
20180224191431 16 36 3.0 11.0 0.00 0.00 0.00 74 1024.5
20180224190931 16 30 3.0 11.0 0.00 0.00 0.00 75 1024.4
20180224190431 16 21 2.0 9.0 0.00 0.00 0.00 75 1024.3
20180224185931 16 21 2.0 11.0 0.00 0.00 0.00 75 1024.4
20180224185431 16 22 2.0 11.0 0.00 0.00 0.00 74 1024.3
20180224184932 16 15 2.0 11.0 0.00 0.00 0.00 74 1024.2
20180224184432 16 10 1.0 11.0 0.00 0.00 0.00 74 1024.2
20180224183932 17 22 1.0 7.0 0.00 0.00 0.00 73 1024.2
20180224183432 17 33 2.0 7.0 0.00 0.00 0.00 72 1024.1
20180224182932 17 32 2.0 5.0 0.00 0.00 0.00 72 1024.1
20180224182432 17 33 3.0 11.0 0.00 0.00 0.00 71 1024.0
20180224181932 17 33 4.0 11.0 0.00 0.00 0.00 71 1023.9
20180224181431 17 36 4.0 11.0 0.00 0.00 0.00 71 1023.8
20180224180931 17 38 4.0 13.0 0.00 0.00 0.00 71 1023.8
20180224180431 17 35 4.0 13.0 0.00 0.00 0.00 71 1023.8
20180224175932 18 32 3.0 9.0 0.00 0.00 0.00 71 1023.7
20180224175436 18 30 3.0 9.0 0.00 0.00 0.00 71 1023.7
20180224174932 18 24 3.0 14.0 0.00 0.00 0.00 71 1023.6
20180224174432 18 23 4.0 15.0 0.00 0.00 0.00 71 1023.5
20180224173932 18 29 5.0 15.0 0.00 0.00 0.00 70 1023.5
20180224173431 18 32 4.0 12.0 0.00 0.00 0.00 70 1023.5